[[{"header":{"parameterUnit":"m.s-1","parameterCategory":1,"la1":30.2992,"la2":30.254,"lo1":-89.0895,"lo2":-89.0443,"dy":0.0025,"dx":0.0025,"nx":19,"ny":19,"refTime":"2026-05-20T21:00:00:Z","depth":0,"parameterNumber":2,"parameterNumberName":"U-component_of_WINDS"},"data":[0,0,0,-3.5076,-3.5077,-3.5096,-3.5096,-3.5127,-3.5128,0,0,0,0,0,0,0,0,0,0,0,-3.5076,-3.5077,-3.5076,-3.5077,-3.5096,-3.5096,-3.5127,-3.5128,0,0,0,0,0,0,0,0,0,0,0,-3.5076,-3.5077,-3.5077,-3.5077,-3.5096,-3.5096,-3.5127,-3.511,0,0,0,0,0,0,0,0,0,0,-3.509,-3.5096,-3.5077,-3.5077,-3.5077,-3.5096,-3.5096,-3.5109,-3.5111,-3.5123,0,-3.5135,0,-3.5132,-3.513,-3.5131,0,0,0,-3.5072,-3.5094,-3.5095,-3.5077,-3.5078,-3.5096,-3.5086,-3.511,-3.5112,-3.5125,-3.5136,-3.5136,-3.5133,-3.5131,-3.5131,-3.5217,-3.5218,0,0,-3.5071,-3.5082,-3.5093,-3.5097,-3.5096,-3.5085,-3.5087,-3.5111,-3.5122,-3.5136,-3.5137,-3.5133,-3.5131,-3.5131,-3.5217,-3.5218,0,0,0,-3.5072,-3.5081,-3.5081,-3.5096,-3.5099,-3.5086,-3.5087,-3.5121,-3.512,-3.5137,-3.5134,-3.5131,-3.5132,-3.5216,-3.5217,-3.5258,0,0,0,-3.5071,-3.5082,-3.5081,-3.5088,-3.5098,-3.511,-3.5097,-3.5119,-3.5121,-3.5134,-3.5131,-3.5132,-3.5215,-3.5217,-3.5255,-3.5274,0,0,0,-3.5073,-3.5082,-3.5087,-3.5088,-3.5097,-3.511,-3.511,-3.5119,-3.5119,-3.5131,-3.5132,-3.5215,-3.5216,-3.5253,-3.527,-3.5299,0,0,0,-3.5078,-3.5121,-3.5088,-3.5135,-3.5097,-3.5137,-3.511,-3.5138,-3.5153,-3.5131,-3.5215,-3.5217,-3.5252,-3.5268,-3.5297,-3.5324,-3.5337,0,0,-3.5138,-3.5129,-3.5156,-3.5126,-3.5175,-3.5133,-3.5187,-3.5189,-3.5179,-3.5205,-3.5207,-3.5256,-3.527,-3.5299,-3.5412,-3.5423,0,0,0,-3.5178,-3.5197,-3.5208,-3.5224,-3.523,-3.5235,-3.5229,-3.5231,-3.5253,-3.5195,-3.5276,-3.5284,-3.53,-3.5312,-3.5321,-3.5334,-3.5224,-3.5224,-3.5224,-3.5274,-3.5263,-3.5307,-3.53,-3.5316,-3.5312,-3.5324,-3.5325,-3.5306,-3.5326,-3.5332,-3.5402,-3.5417,-3.5424,-3.5438,-3.5348,-3.5348,-3.5348,-3.5348,-3.5359,-3.5383,-3.5364,-3.5399,-3.5387,-3.5416,-3.5416,-3.5402,-3.5427,-3.5396,-3.541,-3.5374,-3.5436,-3.5447,-3.5351,-3.5351,-3.5351,-3.535,-3.535,-3.5417,-3.5427,-3.5432,-3.5457,-3.5477,-3.5469,-3.5495,-3.5484,-3.5472,-3.5487,-3.5492,-3.5491,-3.5487,-3.5491,-3.5491,-3.5492,-3.5492,-3.5492,-3.5492,-3.5474,-3.5479,-3.5503,-3.5516,-3.5527,-3.554,-3.554,-3.555,-3.5557,-3.5547,-3.5547,-3.5526,-3.5446,-3.5424,-3.5496,-3.5495,-3.5495,-3.5494,-3.5494,-3.5558,-3.5539,-3.5576,-3.5587,-3.5604,-3.5626,-3.5614,-3.5636,-3.5642,-3.5656,-3.5635,-3.5578,-3.5566,-3.5559,-3.554,-3.5638,-3.5638,-3.5638,-3.5638,-3.5605,-3.56,-3.5637,-3.5657,-3.5675,-3.5669,-3.5711,-3.5714,-3.5713,-3.5716,-3.5702,-3.5678,-3.5672,-3.5663,-3.5654,-3.5636,-3.5756,-3.5756,-3.5757,-3.5655,-3.5652,-3.569,-3.5692,-3.5706,-3.5717,-3.5757,-3.5779,-3.5774,-3.5761,-3.5719,-3.5714,-3.5675,-3.5664,-3.5644,-3.563,-3.5597,0,0]},{"header":{"parameterUnit":"m.s-1","parameterCategory":1,"la1":30.2992,"la2":30.254,"lo1":-89.0895,"lo2":-89.0443,"dy":0.0025,"dx":0.0025,"nx":19,"ny":19,"refTime":"2026-05-20T21:00:00:Z","depth":0,"parameterNumber":3,"parameterNumberName":"V-component_of_WINDS"},"data":[0,0,0,3.2141,3.2141,3.2131,3.2131,3.2104,3.2104,0,0,0,0,0,0,0,0,0,0,0,3.2137,3.2137,3.2141,3.2141,3.2131,3.2131,3.2105,3.2104,0,0,0,0,0,0,0,0,0,0,0,3.2138,3.2137,3.2137,3.2141,3.2131,3.2131,3.2105,3.2117,0,0,0,0,0,0,0,0,0,0,3.2129,3.2119,3.2137,3.2137,3.2141,3.2131,3.2131,3.2118,3.2116,3.2104,0,3.2092,0,3.2098,3.2102,3.2102,0,0,0,3.2146,3.212,3.2124,3.2137,3.2141,3.2131,3.2137,3.2117,3.2115,3.2102,3.2092,3.2091,3.2097,3.2101,3.2101,3.2019,3.2019,0,0,3.2146,3.2131,3.2125,3.2122,3.2124,3.2137,3.2136,3.2116,3.2104,3.2092,3.2091,3.2097,3.2101,3.2101,3.202,3.2019,0,0,0,3.2145,3.2131,3.2136,3.2123,3.2122,3.2136,3.2136,3.2105,3.2107,3.2091,3.2097,3.2101,3.2101,3.202,3.2019,3.1976,0,0,0,3.2145,3.2131,3.2136,3.2127,3.2122,3.2113,3.2124,3.2109,3.2107,3.2097,3.2101,3.21,3.2021,3.202,3.1979,3.1957,0,0,0,3.214,3.213,3.2126,3.2126,3.2121,3.2114,3.2116,3.2109,3.211,3.2102,3.21,3.2022,3.202,3.1981,3.1961,3.1933,0,0,0,3.213,3.2086,3.2125,3.2078,3.2121,3.2087,3.2116,3.2091,3.2078,3.2101,3.2021,3.202,3.1982,3.1964,3.1935,3.1906,3.1893,0,0,3.2066,3.2077,3.2051,3.2086,3.2042,3.209,3.2039,3.2041,3.2053,3.2029,3.2028,3.1978,3.1962,3.1933,3.1821,3.181,0,0,0,3.2025,3.2006,3.1998,3.1986,3.1987,3.1987,3.1998,3.1999,3.1981,3.2038,3.196,3.195,3.1934,3.1921,3.1912,3.19,3.2013,3.2013,3.2013,3.1911,3.1932,3.1889,3.1908,3.1896,3.191,3.1902,3.1906,3.1927,3.1909,3.1902,3.1831,3.1816,3.1809,3.1796,3.1888,3.1887,3.1887,3.1887,3.1819,3.1796,3.1828,3.1799,3.1821,3.1796,3.1808,3.1824,3.1805,3.1837,3.1824,3.1859,3.1796,3.1786,3.1884,3.1885,3.1885,3.1885,3.1886,3.1747,3.174,3.1743,3.173,3.1717,3.1737,3.1718,3.1737,3.1755,3.1742,3.1738,3.1739,3.1743,3.1739,3.1739,3.1738,3.1738,3.1738,3.1738,3.1672,3.1677,3.1659,3.1659,3.1655,3.1652,3.1666,3.1663,3.1664,3.168,3.168,3.1704,3.1786,3.1807,3.1734,3.1735,3.1735,3.1736,3.1736,3.1572,3.1598,3.157,3.1566,3.1569,3.1556,3.1581,3.1573,3.1573,3.1563,3.1591,3.1648,3.1661,3.1668,3.1686,3.1586,3.1586,3.1586,3.1586,3.1512,3.1521,3.1498,3.1491,3.1487,3.1508,3.1476,3.1487,3.1503,3.1504,3.1521,3.1546,3.1553,3.1562,3.1571,3.1588,3.1465,3.1465,3.1465,3.1453,3.1463,3.1432,3.1449,3.1453,3.1455,3.1426,3.1417,3.144,3.1461,3.1506,3.1511,3.1551,3.1563,3.1584,3.1599,3.163,0,0]}]]